DW9750 Weather Reports


time (UTC)temp
C
wind
direction
speed
KPH
gust
KPH
rain 1hr
cm
rain 24hr
cm
rain mn
cm
humidity
%
barometer
mb
20260505070007 20 183 4.8 11.3 0.00 0.00 0.00 88 1007.7
20260505064511 20 158 3.2 9.7 0.00 0.00 0.00 88 1007.9
20260505063009 20 142 3.2 12.9 0.00 0.00 0.00 87 1008.1
20260505061505 21 227 4.8 12.9 0.00 0.00 0.00 87 1008.2
20260505054559 21 187 4.8 11.3 0.00 0.00 0.00 87 1008.2
20260505053105 21 195 4.8 12.9 0.00 0.00 0.00 86 1008.3
20260505051555 21 180 3.2 9.7 0.00 0.00 0.00 85 1008.4
20260505041553 21 148 1.6 8.0 0.00 0.00 0.00 81 1008.3
20260505040051 21 106 1.6 6.4 0.00 0.00 0.00 80 1008.3
20260505034549 21 131 0.0 4.8 0.00 0.00 0.00 79 1008.2
20260505033049 21 126 1.6 6.4 0.00 0.00 0.00 78 1008.2
20260505031548 21 88 0.0 0.0 0.00 0.00 0.00 78 1008.2
20260505030048 21 102 0.0 0.0 0.00 0.00 0.00 77 1008.1
20260505024547 21 137 0.0 3.2 0.00 0.00 0.00 77 1008.1
20260505023051 22 97 1.6 4.8 0.00 0.00 0.00 76 1008.2
20260505021545 22 147 1.6 6.4 0.00 0.00 0.00 75 1008.1
20260505020045 22 134 0.0 4.8 0.00 0.00 0.00 74 1008.1
20260505014545 22 183 1.6 8.0 0.00 0.00 0.00 73 1008.0
20260505013043 23 170 1.6 8.0 0.00 0.00 0.00 71 1007.8
20260505011550 23 166 6.4 11.3 0.00 0.00 0.00 70 1007.7
20260505010047 24 211 3.2 9.7 0.00 0.00 0.00 69 1007.8
20260505004542 24 195 3.2 12.9 0.00 0.00 0.00 68 1007.9
20260505003040 25 178 6.4 16.1 0.00 0.00 0.00 67 1007.9
20260505001540 25 230 8.0 16.1 0.00 0.00 0.00 65 1007.8
20260505000040 26 189 8.0 19.3 0.00 0.00 0.00 64 1007.8
20260504234539 26 156 3.2 19.3 0.00 0.00 0.00 64 1007.7
20260504233042 26 141 6.4 19.3 0.00 0.00 0.00 62 1007.7
20260504231538 26 179 11.3 22.5 0.00 0.00 0.00 61 1008.0
20260504230034 26 181 4.8 20.9 0.00 0.00 0.00 63 1008.1
20260504224532 26 153 9.7 25.7 0.00 0.00 0.00 63 1008.5
20260504223031 26 227 9.7 25.7 0.00 0.00 0.00 61 1008.5
20260504221628 26 132 4.8 25.7 0.00 0.00 0.00 61 1008.6
20260504220027 26 197 4.8 19.3 0.00 0.00 0.00 64 1008.7
20260504214526 26 163 8.0 20.9 0.00 0.00 0.00 63 1008.9
20260504213025 26 213 9.7 24.1 0.00 0.00 0.00 61 1009.0
20260504211522 25 178 9.7 25.7 0.00 0.00 0.00 64 1009.2
20260504210024 25 255 11.3 22.5 0.00 0.00 0.00 63 1009.4
20260504204518 26 227 8.0 19.3 0.00 0.00 0.00 64 1009.7
20260504203015 25 229 6.4 22.5 0.00 0.00 0.00 64 1010.0
20260504201513 25 155 11.3 20.9 0.00 0.00 0.00 63 1010.2
20260504200021 25 201 9.7 24.1 0.00 0.00 0.00 64 1010.5
20260504194508 25 201 8.0 19.3 0.00 0.00 0.00 65 1010.6
20260504193005 25 210 9.7 19.3 0.00 0.00 0.00 64 1010.8
20260504191513 25 220 8.0 16.1 0.00 0.00 0.00 63 1011.0
20260504190003 25 192 6.4 22.5 0.00 0.00 0.00 66 1011.1
20260504184506 25 257 11.3 20.9 0.00 0.00 0.00 64 1011.2
20260504183104 25 194 8.0 17.7 0.00 0.00 0.00 68 1011.3
20260504181555 24 198 9.7 22.5 0.00 0.00 0.00 66 1011.7
20260504180052 23 252 9.7 22.5 0.00 0.00 0.00 67 1011.9
20260504174552 24 199 8.0 22.5 0.00 0.00 0.00 67 1012.2
20260504173052 23 267 8.0 25.7 0.00 0.00 0.00 69 1012.2
20260504171545 23 159 11.3 25.7 0.00 0.00 0.00 69 1012.4
20260504081546 16 208 1.6 6.4 0.00 0.00 0.00 81 1014.6